Weather History for Kalaeloa, HI

Change the Weather History Date:

Monday, December 17, 2012

  Actual Average (PHNL) Record (PHNL)
Temperature  
Mean Temperature 75 °F 75 °F  
Max Temperature 79 °F 81 °F 88 °F (1992)
Min Temperature 71 °F 68 °F 57 °F (1980)
Degree Days  
Heating Degree Days 0 0  
Month to date heating degree days 0  
Since 1 July heating degree days 0  
Cooling Degree Days 10 10  
Month to date cooling degree days 177  
Year to date cooling degree days 4503  
Growing Degree Days 25 (Base 50)    
Moisture  
Dew Point 64 °F    
Average Humidity 70    
Maximum Humidity 78    
Minimum Humidity 60    
Precipitation  
Precipitation 0.00 in 0.12 in 1.47 in (1971)
Month to date precipitation 1.63  
Year to date precipitation 15.49  
Snow  
Snow 0.00 in - - ()
Month to date snowfall  
Since 1 July snowfall  
Snow Depth -    
Sea Level Pressure  
Sea Level Pressure 30.12 in    
Wind  
Wind Speed 10 mph (ENE)    
Max Wind Speed 14 mph    
Max Gust Speed 25 mph    
Visibility 10 miles    
Events Rain    
T = Trace of Precipitation, MM = Missing Value Source: NWS Daily Summary

Daily Weather History Graph

Daily Weather History Graph

Search for Another Location

Airport:

Trip Planner

Search our weather history database for the weather conditions in past years. The results will help you decide how hot, cold, wet, or windy it might be!

Date:

Astronomy

Dec. 17, 2012 Rise Set
Actual Time 7:03 AM HST 5:54 PM HST
Civil Twilight 6:39 AM HST 6:18 PM HST
Nautical Twilight 6:11 AM HST 6:46 PM HST
Astronomical Twilight 5:44 AM HST 7:13 PM HST
Moon 10:49 AM HST (12/17) 10:52 PM HST (12/17)
Length of Visible Light 11h 38m
Length of Day
10h 50m
Waxing Crescent, 26% of the Moon is Illuminated
Dec 17
Waxing Crescent
Dec 19
First Quarter
Dec 28
Full
Jan 4
Last Quarter
Jan 11
New

Hourly Weather History & Observations

Time (HST) Temp. Dew Point Humidity Pressure Visibility Wind Dir Wind Speed Gust Speed Precip Events Conditions
12:53 AM 73.9 °F 63.0 °F 68% 30.12 in 10.0 mi East 12.7 mph 20.7 mph N/A   Partly Cloudy
1:53 AM 73.0 °F 63.0 °F 71% 30.13 in 10.0 mi ENE 5.8 mph 16.1 mph N/A   Scattered Clouds
2:53 AM 73.0 °F 62.1 °F 68% 30.12 in 10.0 mi Variable 5.8 mph - N/A   Clear
3:53 AM 73.0 °F 62.1 °F 68% 30.11 in 10.0 mi ENE 8.1 mph - N/A   Clear
4:11 AM 73.4 °F 60.8 °F 65% 30.09 in 10.0 mi ENE 5.8 mph 16.1 mph N/A   Partly Cloudy
4:53 AM 73.0 °F 62.1 °F 68% 30.11 in 10.0 mi ENE 6.9 mph - N/A   Clear
5:53 AM 73.0 °F 63.0 °F 71% 30.11 in 10.0 mi ENE 10.4 mph 20.7 mph N/A   Mostly Cloudy
6:53 AM 73.0 °F 62.1 °F 68% 30.13 in 10.0 mi ENE 6.9 mph - N/A   Clear
7:53 AM 73.9 °F 63.0 °F 68% 30.14 in 10.0 mi ENE 11.5 mph 23.0 mph N/A   Partly Cloudy
8:53 AM 75.9 °F 63.0 °F 64% 30.14 in 10.0 mi Variable 6.9 mph 24.2 mph N/A   Clear
9:53 AM 77.0 °F 63.0 °F 62% 30.15 in 10.0 mi ENE 11.5 mph 24.2 mph N/A   Partly Cloudy
10:53 AM 79.0 °F 64.0 °F 60% 30.14 in 10.0 mi ENE 13.8 mph 23.0 mph N/A   Scattered Clouds
11:53 AM 77.0 °F 64.9 °F 66% 30.12 in 9.0 mi ENE 11.5 mph 25.3 mph 0.00 in Rain Light Rain
2:53 PM 75.0 °F 66.0 °F 73% 30.09 in 10.0 mi ENE 13.8 mph 24.2 mph 0.00 in Rain Light Rain
3:53 PM 75.9 °F 66.0 °F 71% 30.09 in 10.0 mi NE 11.5 mph 25.3 mph 0.00 in   Mostly Cloudy
4:53 PM 75.0 °F 64.9 °F 71% 30.09 in 10.0 mi ENE 10.4 mph 23.0 mph N/A   Mostly Cloudy
5:53 PM 72.0 °F 64.9 °F 78% 30.10 in 10.0 mi ENE 11.5 mph 19.6 mph 0.00 in   Mostly Cloudy
6:16 PM 71.6 °F 64.4 °F 78% 30.08 in 10.0 mi ENE 12.7 mph 21.9 mph N/A   Scattered Clouds
6:26 PM 73.4 °F 64.4 °F 73% 30.09 in 10.0 mi East 10.4 mph 23.0 mph N/A   Mostly Cloudy
6:36 PM 71.6 °F 64.4 °F 78% 30.09 in 10.0 mi ENE 11.5 mph 21.9 mph N/A   Scattered Clouds
6:53 PM 72.0 °F 64.0 °F 76% 30.12 in 10.0 mi ENE 8.1 mph - N/A   Partly Cloudy
7:53 PM 73.0 °F 63.0 °F 71% 30.12 in 10.0 mi ENE 10.4 mph 21.9 mph N/A   Scattered Clouds
8:53 PM 73.0 °F 64.0 °F 73% 30.12 in 10.0 mi ENE 11.5 mph 21.9 mph N/A   Partly Cloudy
9:53 PM 73.0 °F 63.0 °F 71% 30.13 in 10.0 mi ENE 9.2 mph 21.9 mph N/A   Partly Cloudy
10:53 PM 72.0 °F 63.0 °F 73% 30.14 in 10.0 mi ENE 10.4 mph 17.3 mph 0.00 in   Partly Cloudy
11:53 PM 73.0 °F 64.0 °F 73% 30.13 in 10.0 mi East 8.1 mph 23.0 mph 0.00 in   Scattered Clouds